Location: Unspecified
(17.6330°N, 0.0000°E)
Time: 23:53:42
(UTC+00:00)

deb Explorer IX - Visible Passes

Search period start: 26 June 2019 00:00
Search period end: 06 July 2019 00:00
Orbit: 536 x 1115 km, 38.8° (Epoch: 24 June)

Date Brightness Start Highest point End Pass type
(mag) Time Alt. Az. Time Alt. Az. Time Alt. Az.
26 Jun ? 19:04:37 10° WNW 19:11:39 63° SW 19:17:51 10° SE visible
26 Jun ? 20:57:27 10° SW 20:58:15 10° SW 20:59:03 10° SW visible
27 Jun ? 20:35:23 10° WSW 20:36:22 10° SW 20:37:19 10° SW visible
28 Jun ? 20:13:21 10° WSW 20:14:27 10° SW 20:15:30 10° SW visible
29 Jun ? 19:51:23 10° WSW 19:52:31 10° SW 19:53:39 10° SW visible
30 Jun ? 19:29:26 10° WSW 19:30:34 10° SW 19:31:43 10° SW visible
01 Jul ? 19:07:33 10° SW 19:08:38 10° SW 19:09:41 10° SW visible
05 Jul ? 05:01:46 10° S 05:04:31 17° SE 05:07:26 10° E visible
